GOES 9

operational
NORAD ID: 23581 Int'l Des: 1995-025 Owner: NOAA Country: US
HEOCIRCULAR

GOES 9について

説明を読み込み中...

リアルタイム位置

3D地球を読み込み中...

次回通過

高度履歴

Altitude vs Time

uPlot chart will show altitude changes over time

軌道要素

1 23581U 95025A 26062.28656094 -.00000111 00000-0 00000+0 0 9999
2 23581 13.8687 15.3213 0003670 211.1154 323.5692 0.98798997111717
Epoch: Mar 3, 2026 • Age: 21 hours

現在のステータス

高度 36219.1 km
速度 3.06 km/s
衛星直下点 5.11°N, 77.87°W
打ち上げ日 May 23, 1995
運用期間 30.7 years
タイプ weather

技術仕様

分類 Payload
質量 2105.00 kg
乾燥質量 977.00 kg
総質量 2105.00 kg
長さ 4.50 m
直径 2.50 m
スパン 26.90 m
形状 Box + Pan + Ant
製造者 LOR
バスタイプ FS-1300
フェーズステータス In Orbit
所有者/国 NOAA/US

大規模コンステレーション

Loading constellations...